When you browse on this site, cookies collect data to enhance your experience and personalize the content and advertising you see.
Visit our Privacy Policy to learn more. By continuing to use the site, you agree to this use of cookies and data.
  • In Austria
  • List of Countries
  • For 7 days
  • Water Temperature
  • Satellite Maps
  • Weather Map
  • News
  • Weather Widgets
  • user-avatar
    Login

    Hourly Weather Colón

    Today, 11 December, Tuesday

    Time Temperature Precipitation Wind Pressure Humidity
    00:00 +26°C° 0.1 mm 4 mps 759 mmHg 94%
    01:00 +26°C° 0.1 mm 4 mps 759 mmHg 95%
    02:00 +26°C° 0.2 mm 4 mps 759 mmHg 95%
    03:00 +26°C° 0.2 mm 4 mps 759 mmHg 95%
    04:00 +26°C° 0.2 mm 4 mps 759 mmHg 96%
    05:00 +26°C° 0.3 mm 4 mps 759 mmHg 96%
    06:00 +26°C° 0.3 mm 4 mps 759 mmHg 96%
    07:00 +26°C° 0.3 mm 4 mps 759 mmHg 96%
    08:00 +27°C° 0.3 mm 4 mps 760 mmHg 90%
    09:00 +28°C° 0.3 mm 4 mps 760 mmHg 84%
    10:00 +30°C° 0.3 mm 5 mps 761 mmHg 78%
    11:00 +30°C° 0.2 mm 5 mps 760 mmHg 74%
    12:00 +32°C° 0.2 mm 5 mps 760 mmHg 71%
    13:00 +32°C° 0.2 mm 5 mps 759 mmHg 68%
    14:00 +32°C° 0.1 mm 5 mps 759 mmHg 69%
    15:00 +30°C° 0.1 mm 5 mps 758 mmHg 71%
    16:00 +30°C° 0.1 mm 5 mps 758 mmHg 73%
    17:00 +29°C° 0.1 mm 5 mps 758 mmHg 78%
    18:00 +28°C° 0.1 mm 5 mps 758 mmHg 84%
    19:00 +26°C° 0.1 mm 4 mps 758 mmHg 90%
    20:00 +26°C° 0.1 mm 4 mps 759 mmHg 91%
    21:00 +26°C° 0.1 mm 4 mps 759 mmHg 92%
    22:00 +26°C° 0.1 mm 4 mps 760 mmHg 93%
    23:00 +26°C° 0.2 mm 4 mps 760 mmHg 93%

    Tomorrow, 12 December, Wednesday

    Time Temperature Precipitation Wind Pressure Humidity
    00:00 +26°C° 0.2 mm 4 mps 760 mmHg 94%
    01:00 +26°C° 0.2 mm 4 mps 760 mmHg 94%
    02:00 +26°C° 0.2 mm 4 mps 759 mmHg 94%
    03:00 +26°C° 0.2 mm 4 mps 759 mmHg 95%
    04:00 +26°C° 0.2 mm 4 mps 759 mmHg 95%
    05:00 +26°C° 0.3 mm 4 mps 759 mmHg 95%
    06:00 +26°C° 0.3 mm 4 mps 759 mmHg 95%
    07:00 +26°C° 0.3 mm 4 mps 759 mmHg 95%
    08:00 +27°C° 0.3 mm 4 mps 760 mmHg 91%
    09:00 +28°C° 0.3 mm 5 mps 760 mmHg 86%
    10:00 +29°C° 0.3 mm 5 mps 761 mmHg 82%
    11:00 +30°C° 0.4 mm 5 mps 760 mmHg 79%
    12:00 +30°C° 0.4 mm 5 mps 759 mmHg 77%
    13:00 +30°C° 0.4 mm 5 mps 758 mmHg 74%
    14:00 +30°C° 0.3 mm 5 mps 758 mmHg 75%
    15:00 +30°C° 0.3 mm 5 mps 757 mmHg 76%
    16:00 +30°C° 0.3 mm 5 mps 757 mmHg 77%
    17:00 +28°C° 0.1 mm 4 mps 757 mmHg 82%
    18:00 +27°C° 0.1 mm 4 mps 757 mmHg 86%
    19:00 +26°C° 0.1 mm 4 mps 757 mmHg 91%
    20:00 +26°C° 0.1 mm 4 mps 758 mmHg 92%
    21:00 +26°C° 0.1 mm 4 mps 759 mmHg 93%
    22:00 +26°C° 0.1 mm 4 mps 759 mmHg 94%
    23:00 +26°C° 0.2 mm 4 mps 759 mmHg 95%

    Day after tomorrow, 13 December, Thursday

    Time Temperature Precipitation Wind Pressure Humidity
    00:00 +26°C° 0.2 mm 4 mps 759 mmHg 95%
    01:00 +26°C° 0.2 mm 4 mps 758 mmHg 96%
    02:00 +26°C° 0.6 mm 4 mps 758 mmHg 96%
    03:00 +26°C° 0.6 mm 3 mps 758 mmHg 96%
    04:00 +26°C° 0.6 mm 3 mps 757 mmHg 96%
    05:00 +26°C° 0.8 mm 3 mps 758 mmHg 96%
    06:00 +26°C° 0.8 mm 3 mps 758 mmHg 96%
    07:00 +26°C° 0.8 mm 3 mps 758 mmHg 96%
    08:00 +27°C° 0.6 mm 3 mps 759 mmHg 92%
    09:00 +28°C° 0.6 mm 3 mps 759 mmHg 88%
    10:00 +29°C° 0.6 mm 3 mps 760 mmHg 83%
    11:00 +30°C° 1.1 mm 3 mps 759 mmHg 81%
    12:00 +30°C° 1.1 mm 3 mps 759 mmHg 78%
    13:00 +31°C° 1.1 mm 3 mps 758 mmHg 75%
    14:00 +30°C° 0.5 mm 3 mps 757 mmHg 77%
    15:00 +30°C° 0.5 mm 3 mps 757 mmHg 79%
    16:00 +30°C° 0.5 mm 3 mps 756 mmHg 81%
    17:00 +29°C° 0.2 mm 3 mps 757 mmHg 85%
    18:00 +28°C° 0.2 mm 3 mps 757 mmHg 88%
    19:00 +27°C° 0.2 mm 3 mps 757 mmHg 92%
    20:00 +27°C° 0.2 mm 3 mps 758 mmHg 92%
    21:00 +27°C° 0.2 mm 3 mps 758 mmHg 93%
    22:00 +27°C° 0.2 mm 3 mps 759 mmHg 93%
    23:00 +27°C° 0.5 mm 3 mps 758 mmHg 94%

    14 December, Friday

    Time Temperature Precipitation Wind Pressure Humidity
    00:00 +27°C° 0.5 mm 3 mps 758 mmHg 94%
    01:00 +27°C° 0.5 mm 3 mps 758 mmHg 95%
    02:00 +27°C° 0.5 mm 2 mps 757 mmHg 95%
    03:00 +27°C° 0.5 mm 2 mps 757 mmHg 95%
    04:00 +26°C° 0.5 mm 2 mps 757 mmHg 95%
    05:00 +26°C° 0.2 mm 2 mps 757 mmHg 95%
    06:00 +26°C° 0.2 mm 2 mps 758 mmHg 95%
    07:00 +27°C° 0.2 mm 2 mps 758 mmHg 95%
    08:00 +28°C° 0.2 mm 2 mps 758 mmHg 90%
    09:00 +29°C° 0.2 mm 2 mps 759 mmHg 85%
    10:00 +30°C° 0.2 mm 2 mps 759 mmHg 81%
    11:00 +31°C° 0.3 mm 2 mps 759 mmHg 78%
    12:00 +31°C° 0.3 mm 2 mps 758 mmHg 76%
    13:00 +33°C° 0.3 mm 3 mps 758 mmHg 73%
    14:00 +31°C° 0.2 mm 3 mps 757 mmHg 75%
    15:00 +31°C° 0.2 mm 3 mps 756 mmHg 76%
    16:00 +30°C° 0.2 mm 3 mps 756 mmHg 78%
    17:00 +29°C° 0.1 mm 2 mps 756 mmHg 83%
    18:00 +28°C° 0.1 mm 2 mps 756 mmHg 88%
    19:00 +27°C° 0.1 mm 2 mps 757 mmHg 92%
    20:00 +27°C° 0.1 mm 2 mps 757 mmHg 93%
    21:00 +27°C° 0.1 mm 2 mps 758 mmHg 94%
    22:00 +27°C° 0.1 mm 1 mps 759 mmHg 94%
    23:00 +27°C° 0.4 mm 1 mps 758 mmHg 94%

    15 December, Saturday

    Time Temperature Precipitation Wind Pressure Humidity
    00:00 +27°C° 0.4 mm 1 mps 758 mmHg 94%
    01:00 +27°C° 0.4 mm 2 mps 758 mmHg 94%
    02:00 +26°C° 0.4 mm 2 mps 758 mmHg 94%
    03:00 +26°C° 0.4 mm 2 mps 758 mmHg 94%
    04:00 +26°C° 0.4 mm 2 mps 758 mmHg 94%
    05:00 +26°C° 0.4 mm 2 mps 758 mmHg 94%
    06:00 +26°C° 0.4 mm 2 mps 758 mmHg 94%
    07:00 +26°C° 0.4 mm 2 mps 759 mmHg 94%
    08:00 +27°C° 0.2 mm 2 mps 759 mmHg 90%
    09:00 +28°C° 0.2 mm 3 mps 760 mmHg 86%
    10:00 +29°C° 0.2 mm 3 mps 760 mmHg 82%
    11:00 +30°C° 0.3 mm 3 mps 759 mmHg 81%
    12:00 +30°C° 0.3 mm 3 mps 759 mmHg 81%
    13:00 +30°C° 0.3 mm 4 mps 758 mmHg 80%
    14:00 +30°C° 0.3 mm 4 mps 758 mmHg 80%
    15:00 +30°C° 0.3 mm 4 mps 757 mmHg 80%
    16:00 +29°C° 0.3 mm 4 mps 757 mmHg 80%
    17:00 +28°C° 0.1 mm 4 mps 757 mmHg 84%
    18:00 +27°C° 0.1 mm 4 mps 758 mmHg 89%
    19:00 +27°C° 0.1 mm 4 mps 758 mmHg 93%
    20:00 +26°C° 0.1 mm 4 mps 759 mmHg 94%
    21:00 +26°C° 0.1 mm 4 mps 759 mmHg 94%
    22:00 +26°C° 0.1 mm 4 mps 759 mmHg 95%
    23:00 +26°C° 0.3 mm 4 mps 759 mmHg 96%

    16 December, Sunday

    Time Temperature Precipitation Wind Pressure Humidity
    00:00 +26°C° 0.3 mm 4 mps 759 mmHg 96%
    01:00 +26°C° 0.3 mm 4 mps 759 mmHg 96%
    02:00 +26°C° 0.3 mm 4 mps 758 mmHg 96%
    03:00 +26°C° 0.3 mm 4 mps 758 mmHg 97%
    04:00 +26°C° 0.3 mm 4 mps 758 mmHg 97%
    05:00 +26°C° 0.5 mm 4 mps 758 mmHg 97%
    06:00 +26°C° 0.5 mm 4 mps 759 mmHg 96%
    07:00 +26°C° 0.5 mm 3 mps 759 mmHg 96%
    08:00 +27°C° 0.9 mm 3 mps 759 mmHg 92%
    09:00 +28°C° 0.9 mm 3 mps 760 mmHg 87%
    10:00 +29°C° 0.9 mm 3 mps 760 mmHg 83%
    11:00 +29°C° 0.5 mm 3 mps 759 mmHg 80%
    12:00 +29°C° 0.5 mm 3 mps 758 mmHg 78%
    13:00 +30°C° 0.5 mm 3 mps 758 mmHg 76%
    14:00 +29°C° 0.2 mm 3 mps 757 mmHg 77%
    15:00 +29°C° 0.2 mm 3 mps 757 mmHg 77%
    16:00 +29°C° 0.2 mm 3 mps 756 mmHg 78%
    17:00 +28°C° 0.1 mm 4 mps 757 mmHg 82%
    18:00 +28°C° 0.1 mm 4 mps 757 mmHg 86%
    19:00 +27°C° 0.1 mm 4 mps 757 mmHg 91%
    20:00 +27°C° 0.2 mm 4 mps 758 mmHg 92%
    21:00 +26°C° 0.2 mm 4 mps 758 mmHg 93%
    22:00 +26°C° 0.2 mm 4 mps 759 mmHg 94%
    23:00 +26°C° 0.3 mm 4 mps 759 mmHg 95%
    Show more